LHA744 EDDH-EKBI

Flight info

Callsign LHA744
Flight time 0h 32m
Altitude 24000
Route SOKWO1C SOKWO T814 EXNEL/N0407F230 M105 AMRAK/N0412F240 DCT LOKSA
Aircraft A320/M-SDE3FGHIRWY/LB1

Departure

Time 2026-04-20 22:58
Airport Hamburg Helmut Schmidt Airport (EDDH)

Arrival

Time 2026-04-20 23:30
Airport Billund Airport (EKBI)
Time Latitude Longitude Altitude Speed Heading
2026-04-20 22:23 53.63294 10.00358 51 ft 0 kts 87°
2026-04-20 22:35 53.63294 10.00349 51 ft 2 kts 87°
2026-04-20 22:35 53.63293 10.00317 51 ft 3 kts 87°
2026-04-20 22:36 53.63292 10.00300 51 ft 0 kts 87°
2026-04-20 22:38 53.63294 10.00358 51 ft 0 kts 87°
2026-04-20 22:42 53.63294 10.00340 51 ft 3 kts 87°
2026-04-20 22:42 53.63293 10.00306 51 ft 3 kts 87°
2026-04-20 22:42 53.63291 10.00273 51 ft 3 kts 91°
2026-04-20 22:43 53.63294 10.00246 51 ft 3 kts 141°
2026-04-20 22:43 53.63307 10.00236 46 ft 1 kts 176°
2026-04-20 22:43 53.63316 10.00235 49 ft 1 kts 176°
2026-04-20 22:43 53.63317 10.00235 49 ft 0 kts 176°
2026-04-20 22:49 53.63311 10.00236 46 ft 3 kts 176°
2026-04-20 22:49 53.63289 10.00238 51 ft 3 kts 176°
2026-04-20 22:49 53.63270 10.00240 49 ft 2 kts 176°
2026-04-20 22:50 53.63255 10.00242 51 ft 2 kts 176°
2026-04-20 22:50 53.63204 10.00248 51 ft 17 kts 176°
2026-04-20 22:50 53.63081 10.00260 51 ft 16 kts 183°
2026-04-20 22:50 53.62991 10.00178 49 ft 14 kts 212°
2026-04-20 22:51 53.62955 10.00140 50 ft 4 kts 212°
2026-04-20 22:51 53.62932 10.00115 51 ft 4 kts 212°
2026-04-20 22:51 53.62912 10.00093 51 ft 3 kts 212°
2026-04-20 22:51 53.62894 10.00073 51 ft 3 kts 212°
2026-04-20 22:52 53.62864 10.00040 50 ft 8 kts 214°
2026-04-20 22:52 53.62820 9.99990 50 ft 7 kts 214°
2026-04-20 22:52 53.62777 9.99940 50 ft 7 kts 214°
2026-04-20 22:52 53.62731 9.99892 49 ft 8 kts 209°
2026-04-20 22:53 53.62681 9.99845 49 ft 8 kts 209°
2026-04-20 22:53 53.62643 9.99787 48 ft 9 kts 250°
2026-04-20 22:53 53.62629 9.99675 50 ft 9 kts 259°
2026-04-20 22:53 53.62618 9.99575 49 ft 8 kts 259°
2026-04-20 22:54 53.62607 9.99485 47 ft 7 kts 259°
2026-04-20 22:54 53.62598 9.99405 51 ft 7 kts 259°
2026-04-20 22:54 53.62587 9.99305 51 ft 9 kts 259°
2026-04-20 22:54 53.62576 9.99209 48 ft 8 kts 259°
2026-04-20 22:55 53.62566 9.99123 51 ft 7 kts 259°
2026-04-20 22:55 53.62557 9.99038 51 ft 9 kts 259°
2026-04-20 22:55 53.62546 9.98941 51 ft 8 kts 259°
2026-04-20 22:55 53.62533 9.98821 51 ft 11 kts 259°
2026-04-20 22:56 53.62519 9.98701 49 ft 10 kts 259°
2026-04-20 22:56 53.62499 9.98535 51 ft 17 kts 259°
2026-04-20 22:56 53.62477 9.98339 48 ft 17 kts 259°
2026-04-20 22:56 53.62454 9.98143 50 ft 17 kts 259°
2026-04-20 22:57 53.62432 9.97939 50 ft 18 kts 259°
2026-04-20 22:57 53.62473 9.97782 47 ft 17 kts 329°
2026-04-20 22:57 53.62569 9.97879 48 ft 20 kts 50°
2026-04-20 22:57 53.62804 9.98349 50 ft 99 kts 50°
2026-04-20 22:58 53.63425 9.99593 148 ft 166 kts 50°
2026-04-20 22:58 53.64162 10.01127 1120 ft 172 kts 53°
2026-04-20 22:58 53.64935 10.02754 2168 ft 186 kts 56°
2026-04-20 22:58 53.65797 10.04524 3200 ft 205 kts 54°
2026-04-20 22:59 53.66745 10.06454 4366 ft 220 kts 53°
2026-04-20 22:59 53.67760 10.08518 5540 ft 236 kts 53°
2026-04-20 22:59 53.68847 10.10728 6725 ft 253 kts 53°
2026-04-20 22:59 53.70008 10.13089 7861 ft 269 kts 52°
2026-04-20 23:00 53.70817 10.14732 8634 ft 280 kts 52°
2026-04-20 23:00 53.72902 10.17544 10239 ft 303 kts 22°
2026-04-20 23:00 53.74292 10.17996 10975 ft 315 kts
2026-04-20 23:00 53.76504 10.17464 12117 ft 326 kts 352°
2026-04-20 23:01 53.78744 10.16589 13294 ft 333 kts 350°
2026-04-20 23:01 53.81004 10.15610 14464 ft 339 kts 349°
2026-04-20 23:01 53.83344 10.14575 14951 ft 355 kts 349°
2026-04-20 23:01 53.85767 10.13514 15517 ft 363 kts 349°
2026-04-20 23:02 53.88226 10.12457 16199 ft 367 kts 350°
2026-04-20 23:02 53.90717 10.11409 16879 ft 370 kts 350°
2026-04-20 23:02 53.93229 10.10370 17561 ft 374 kts 350°
2026-04-20 23:02 53.95772 10.09328 18230 ft 378 kts 350°
2026-04-20 23:03 53.98342 10.08273 18841 ft 381 kts 350°
2026-04-20 23:03 54.00930 10.07207 19408 ft 385 kts 350°
2026-04-20 23:03 54.03538 10.06129 19999 ft 388 kts 350°
2026-04-20 23:03 54.06169 10.05041 20571 ft 391 kts 350°
2026-04-20 23:04 54.08787 10.03692 21105 ft 397 kts 341°
2026-04-20 23:04 54.11267 10.01524 21655 ft 405 kts 331°
2026-04-20 23:04 54.13507 9.98545 22200 ft 413 kts 320°
2026-04-20 23:04 54.15474 9.94933 22740 ft 418 kts 315°
2026-04-20 23:05 54.17419 9.91221 23275 ft 421 kts 315°
2026-04-20 23:05 54.19381 9.87485 23790 ft 424 kts 315°
2026-04-20 23:05 54.21359 9.83730 24200 ft 427 kts 315°
2026-04-20 23:05 54.23350 9.79971 24326 ft 427 kts 317°
2026-04-20 23:06 54.25536 9.76574 24356 ft 422 kts 326°
2026-04-20 23:06 54.27899 9.73613 24355 ft 421 kts 327°
2026-04-20 23:06 54.30239 9.70701 24355 ft 421 kts 327°
2026-04-20 23:06 54.32660 9.67775 24355 ft 419 kts 332°
2026-04-20 23:07 54.35244 9.65537 24355 ft 414 kts 342°
2026-04-20 23:07 54.37949 9.64129 24338 ft 410 kts 352°
2026-04-20 23:07 54.40765 9.63520 24356 ft 406 kts
2026-04-20 23:07 54.43568 9.63737 24355 ft 402 kts 11°
2026-04-20 23:08 54.46317 9.64590 24356 ft 401 kts 14°
2026-04-20 23:08 54.49058 9.65492 24355 ft 401 kts 14°
2026-04-20 23:08 54.51836 9.66406 24355 ft 401 kts 14°
2026-04-20 23:08 54.54580 9.67300 24356 ft 401 kts 13°
2026-04-20 23:09 54.57289 9.68165 24357 ft 401 kts 13°
2026-04-20 23:09 54.60070 9.69042 24359 ft 401 kts 13°
2026-04-20 23:09 54.62779 9.69892 24348 ft 401 kts 13°
2026-04-20 23:09 54.65561 9.70760 24362 ft 401 kts 13°
2026-04-20 23:10 54.68315 9.71540 24367 ft 401 kts 12°
2026-04-20 23:10 54.71040 9.72239 24368 ft 402 kts 11°
2026-04-20 23:10 54.73845 9.72924 24367 ft 402 kts 11°
2026-04-20 23:10 54.76576 9.73585 24371 ft 402 kts 11°
2026-04-20 23:11 54.79340 9.74265 24381 ft 402 kts 11°
2026-04-20 23:11 54.82130 9.74705 24377 ft 404 kts
2026-04-20 23:11 54.84986 9.74423 24409 ft 408 kts 356°
2026-04-20 23:11 54.87800 9.73710 24391 ft 409 kts 355°
2026-04-20 23:12 54.90580 9.73008 24409 ft 410 kts 355°
2026-04-20 23:12 54.93403 9.72305 24410 ft 410 kts 355°
2026-04-20 23:12 54.96224 9.71603 24410 ft 410 kts 355°
2026-04-20 23:12 54.99053 9.70891 24410 ft 410 kts 355°
2026-04-20 23:13 55.01870 9.70178 24409 ft 410 kts 355°
2026-04-20 23:13 55.04696 9.69460 24409 ft 410 kts 355°
2026-04-20 23:13 55.07516 9.68744 24407 ft 410 kts 355°
2026-04-20 23:13 55.10338 9.68028 24405 ft 410 kts 355°
2026-04-20 23:14 55.13160 9.67313 24401 ft 410 kts 355°
2026-04-20 23:14 55.15981 9.66598 24398 ft 410 kts 355°
2026-04-20 23:14 55.18807 9.65879 24400 ft 410 kts 355°
2026-04-20 23:14 55.21632 9.65155 24403 ft 411 kts 355°
2026-04-20 23:15 55.24460 9.64433 24403 ft 411 kts 355°
2026-04-20 23:15 55.27287 9.63709 24401 ft 411 kts 355°
2026-04-20 23:15 55.30110 9.62939 24373 ft 412 kts 352°
2026-04-20 23:15 55.32844 9.61309 23218 ft 418 kts 336°
2026-04-20 23:16 55.35187 9.58275 21814 ft 423 kts 317°
2026-04-20 23:16 55.36883 9.54076 20572 ft 424 kts 298°
2026-04-20 23:16 55.37755 9.49154 19410 ft 422 kts 279°
2026-04-20 23:16 55.37782 9.44022 18206 ft 419 kts 267°
2026-04-20 23:17 55.37551 9.38946 16939 ft 414 kts 266°
2026-04-20 23:17 55.37305 9.33940 15774 ft 409 kts 266°
2026-04-20 23:17 55.37058 9.28994 14658 ft 404 kts 266°
2026-04-20 23:17 55.36810 9.24110 13508 ft 399 kts 266°
2026-04-20 23:18 55.36563 9.19290 12362 ft 392 kts 266°
2026-04-20 23:18 55.36314 9.14555 11259 ft 386 kts 266°
2026-04-20 23:18 55.36065 9.09903 10212 ft 379 kts 266°
2026-04-20 23:18 55.35907 9.05509 9888 ft 349 kts 276°
2026-04-20 23:19 55.36462 9.01603 9744 ft 314 kts 299°
2026-04-20 23:19 55.37446 8.98319 9333 ft 297 kts 303°
2026-04-20 23:19 55.38459 8.95186 8680 ft 292 kts 304°
2026-04-20 23:19 55.39470 8.92109 8011 ft 290 kts 304°
2026-04-20 23:20 55.40482 8.89059 7324 ft 287 kts 304°
2026-04-20 23:20 55.41600 8.86201 6638 ft 280 kts 320°
2026-04-20 23:20 55.43200 8.84465 5967 ft 265 kts 347°
2026-04-20 23:20 55.44965 8.83685 5252 ft 260 kts 353°
2026-04-20 23:21 55.46727 8.83040 4529 ft 257 kts 353°
2026-04-20 23:21 55.48479 8.82429 3817 ft 256 kts 354°
2026-04-20 23:21 55.50223 8.81841 3178 ft 253 kts 354°
2026-04-20 23:21 55.51954 8.81264 3020 ft 255 kts 354°
2026-04-20 23:22 55.53698 8.80684 3005 ft 256 kts 354°
2026-04-20 23:22 55.55451 8.80102 3010 ft 256 kts 354°
2026-04-20 23:22 55.57207 8.79884 3011 ft 251 kts
2026-04-20 23:22 55.58955 8.80086 3013 ft 251 kts
2026-04-20 23:23 55.60682 8.80280 3008 ft 239 kts
2026-04-20 23:23 55.62247 8.80441 3005 ft 213 kts
2026-04-20 23:23 55.63653 8.80588 3003 ft 194 kts
2026-04-20 23:23 55.64975 8.80732 3007 ft 187 kts
2026-04-20 23:24 55.66251 8.80876 3022 ft 176 kts 10°
2026-04-20 23:24 55.67401 8.80996 3011 ft 157 kts 11°
2026-04-20 23:24 55.68497 8.81125 3023 ft 164 kts 11°
2026-04-20 23:24 55.69654 8.81270 3016 ft 168 kts 11°
2026-04-20 23:25 55.70823 8.81413 3014 ft 169 kts 11°
2026-04-20 23:25 55.71935 8.81869 3008 ft 161 kts 34°
2026-04-20 23:25 55.72729 8.83178 3012 ft 155 kts 61°
2026-04-20 23:25 55.73048 8.84977 3014 ft 154 kts 85°
2026-04-20 23:26 55.73109 8.86841 3018 ft 142 kts 86°
2026-04-20 23:26 55.73166 8.88534 2971 ft 134 kts 85°
2026-04-20 23:26 55.73221 8.90161 2879 ft 129 kts 85°
2026-04-20 23:26 55.73273 8.91745 2713 ft 128 kts 85°
2026-04-20 23:27 55.73326 8.93316 2539 ft 127 kts 85°
2026-04-20 23:27 55.73377 8.94875 2373 ft 127 kts 85°
2026-04-20 23:27 55.73429 8.96433 2200 ft 126 kts 85°
2026-04-20 23:27 55.73479 8.97961 2029 ft 126 kts 85°
2026-04-20 23:28 55.73530 8.99506 1853 ft 125 kts 85°
2026-04-20 23:28 55.73580 9.01048 1686 ft 125 kts 85°
2026-04-20 23:28 55.73630 9.02597 1508 ft 125 kts 85°
2026-04-20 23:28 55.73680 9.04135 1338 ft 124 kts 85°
2026-04-20 23:29 55.73729 9.05666 1151 ft 125 kts 85°
2026-04-20 23:29 55.73780 9.07206 965 ft 126 kts 85°
2026-04-20 23:29 55.73836 9.08762 799 ft 127 kts 86°
2026-04-20 23:29 55.73876 9.10345 635 ft 129 kts 85°
2026-04-20 23:30 55.73935 9.11918 458 ft 127 kts 87°
2026-04-20 23:30 55.73984 9.13494 274 ft 128 kts 87°
2026-04-20 23:30 55.74027 9.14937 229 ft 90 kts 86°
2026-04-20 23:30 55.74051 9.15683 232 ft 49 kts 86°
2026-04-20 23:31 55.74069 9.16237 236 ft 41 kts 87°
2026-04-20 23:31 55.74082 9.16643 242 ft 22 kts 86°
2026-04-20 23:31 55.74107 9.16907 242 ft 19 kts 44°
2026-04-20 23:31 55.74188 9.16898 241 ft 10 kts 344°
2026-04-20 23:32 55.74241 9.16841 241 ft 9 kts 289°
2026-04-20 23:32 55.74250 9.16667 239 ft 24 kts 269°
2026-04-20 23:32 55.74242 9.16350 237 ft 27 kts 266°
2026-04-20 23:32 55.74230 9.16004 235 ft 29 kts 266°
2026-04-20 23:33 55.74217 9.15634 233 ft 31 kts 266°
2026-04-20 23:33 55.74204 9.15243 230 ft 33 kts 266°
2026-04-20 23:33 55.74219 9.15011 230 ft 14 kts 320°
2026-04-20 23:33 55.74312 9.14989 228 ft 14 kts 357°
2026-04-20 23:34 55.74406 9.14981 228 ft 14 kts 357°
2026-04-20 23:34 55.74456 9.14893 228 ft 11 kts 268°
2026-04-20 23:34 55.74453 9.14752 227 ft 11 kts 272°
2026-04-20 23:34 55.74503 9.14682 227 ft 9 kts 356°
2026-04-20 23:35 55.74533 9.14680 227 ft 0 kts 358°